Вернуться в каталог

CZ-6A DEB

АктивенSSO
NORAD 54332·DEBRIS·🇨🇳 China

Запущен Nov 11, 2022 с Taiyuan Satellite Launch Center

Loading…

Ближайшие Пролёты (ближайшие 24 часа)

TLE

СвежийSource: Space-Track

Эпоха: Sep 14, 2026, 11:51 UTC

1 54332U 22151CB  26257.49400925  .00001255  00000-0  54862-3 0  9994
2 54332  98.7665 276.4578 0040031  76.1064 284.4563 14.25185341198634

Отслеживайте CZ-6A DEB в реальном времени с AllMySat

Download on the App Store